[[[{"header":{"parameterUnit":"kt","parameterCategory":2,"dx":1,"dy":1,"la1":30.253999710083008,"la2":30.299108505249023,"lo1":-89.0895004272461,"lo2":-89.04439544677734,"nx":28,"ny":28,"refTime":"2022-09-30T21:00:00:Z","depth":0,"parameterNumber":1,"parameterNumberName":"U-component_of_WINDS"},"data":[-2.3995,-2.4173,-2.416,-2.4358,-2.438,-2.4513,-2.4557,-2.4612,-2.4652,-2.481,-2.4898,-2.4903,-2.4938,-2.5041,-2.5136,-2.5136,-2.518,-2.5252,-2.5241,-2.4926,-2.4882,-2.484,-2.4798,-2.5261,-2.5261,-2.5572,-2.5575,-2.5577,-2.3765,-2.3788,-2.3888,-2.3977,-2.4063,-2.3984,-2.4048,-2.4126,-2.4248,-2.4298,-2.4384,-2.4522,-2.4629,-2.464,-2.4741,-2.4826,-2.4796,-2.4854,-2.4851,-2.4859,-2.452,-2.4475,-2.4877,-2.4877,-2.4876,-2.4876,-2.4876,-2.4876,-2.3343,-2.345,-2.3496,-2.3605,-2.3645,-2.3705,-2.3805,-2.3808,-2.3907,-2.401,-2.3974,-2.4112,-2.4161,-2.4276,-2.4311,-2.4418,-2.4352,-2.4413,-2.4429,-2.4446,-2.4468,-2.4029,-2.4434,-2.4433,-2.4432,-2.4431,-2.443,0,-2.3032,-2.3013,-2.3108,-2.32,-2.3278,-2.3348,-2.341,-2.3471,-2.3427,-2.3511,-2.363,-2.3697,-2.3828,-2.3941,-2.4032,-2.4056,-2.3988,-2.3977,-2.402,-2.4043,-2.4052,-2.4054,-2.3507,-2.3967,-2.3963,-2.396,-2.3958,-2.3956,-2.261,-2.2736,-2.2776,-2.2845,-2.2875,-2.2986,-2.305,-2.3002,-2.3072,-2.3141,-2.3239,-2.3348,-2.3435,-2.3629,-2.3633,-2.3732,-2.3701,-2.3878,-2.3715,-2.373,-2.371,-2.3705,-2.3719,-2.3913,-2.3919,-2.3923,-2.3927,0,-2.2375,-2.2352,-2.2542,-2.2569,-2.258,-2.2715,-2.2739,-2.2843,-2.2834,-2.2979,-2.3009,-2.2998,-2.3116,-2.309,-2.322,-2.3204,-2.3429,-2.3392,-2.3412,-2.3406,-2.3566,-2.3553,-2.4082,-2.415,-2.3664,-2.3668,-2.3672,0,-2.2009,-2.2175,-2.2132,-2.2243,-2.2426,-2.2373,-2.2556,-2.2567,-2.2607,-2.272,-2.2634,-2.2742,-2.2692,-2.2797,-2.2773,-2.2951,-2.2974,-2.2974,-2.2967,-2.2986,-2.2986,-2.3027,-2.3008,-2.2939,-2.2936,-2.2934,-2.2932,0,-2.1648,-2.1817,-2.1997,-2.2033,-2.208,-2.2166,-2.2189,-2.2233,-2.2297,-2.2374,-2.2415,-2.2509,-2.2562,-2.2637,-2.2606,-2.2497,-2.2821,-2.2665,-2.2822,-2.2824,-2.2901,-2.2898,-2.3366,-2.2928,-2.2928,-2.2927,-2.2926,0,-2.135,-2.1428,-2.1692,-2.1729,-2.1776,-2.1894,-2.1983,-2.2078,-2.2131,-2.2123,-2.2184,-2.2126,-2.2276,-2.2123,-2.2331,-2.2198,-2.2255,-2.2268,-2.2278,-2.2296,-2.2128,-2.2402,-2.2845,-2.2894,-2.2304,-2.2299,-2.2295,0,-2.0946,-2.1204,-2.1161,-2.1412,-2.1528,-2.1425,-2.1555,-2.1604,-2.1605,-2.1704,-2.1703,-2.1818,-2.1698,-2.1731,-2.1836,-2.1843,-2.2015,-2.1817,-2.1968,-2.1974,-2.1962,-2.2368,-2.2444,-2.2749,-2.2228,-2.2235,-2.224,0,-2.063,-2.0684,-2.0732,-2.0771,-2.0826,-2.0923,-2.1072,-2.1172,-2.1241,-2.1304,-2.1431,-2.1588,-2.1506,-2.156,-2.1523,-2.1635,-2.1896,-2.1532,-2.1532,-2.1603,-2.219,-2.2261,-2.2313,-2.1847,-2.1855,-2.1861,-2.2187,0,-2.0195,-2.032,-2.0446,-2.0534,-2.0603,-2.0758,-2.0731,-2.0807,-2.0764,-2.0761,-2.0944,-2.0978,-2.1083,-2.1132,-2.1092,-2.1353,-2.1307,-2.1218,-2.1073,-2.1337,-2.1444,-2.1487,-2.0915,-2.0911,-2.0907,-2.0904,0,0,-1.9817,-1.9995,-1.9943,-2.0085,-2.0142,-2.0033,-2.0202,-2.0243,-2.0333,-2.0375,-2.0291,-2.0521,-2.0554,-2.078,-2.0859,-2.09,-2.0946,-2.0855,-2.121,-2.1244,-2.1276,-2.1391,-2.1436,-2.0897,-2.0896,-2.0894,-2.0893,0,-1.9653,-1.9684,-1.9849,-1.989,-1.9949,-1.9937,-1.9976,-2.0016,-2.0023,-2.0199,-2.0111,-2.0217,-2.0402,-2.0449,-2.0498,-2.0825,-2.0755,-2.0858,-2.1045,-2.1173,-2.1212,-2.1247,-2.1368,-2.1411,-2.0884,-2.0885,-2.0885,0,-1.9341,-1.9369,-1.9445,-1.9565,-1.9603,-1.9725,-1.9563,-1.9698,-1.9789,-1.9667,-1.9845,-1.9862,-1.9922,-2.0137,-2.0232,-2.0161,-2.0583,-2.0444,-2.0467,-2.0479,-2.0601,-2.0648,-2.069,-2.0138,-2.0136,-2.0133,0,0,-1.9204,-1.9319,-1.9335,-1.9528,-1.9558,-1.9542,-1.9604,-1.9568,-1.9623,-1.9646,-1.9666,-1.9724,-1.983,-1.9902,-2.0001,-2.024,-2.0251,-2.0353,-2.0388,-2.0417,-2.0445,-2.0575,-2.0621,-2.0124,-2.0124,-2.0123,0,0,-1.9139,-1.9165,-1.9111,-1.9331,-1.9386,-1.9416,-1.9536,-1.9472,-1.9558,-1.9537,-1.9484,-1.9498,-1.9697,-1.9718,-1.9595,-1.995,-1.9805,-1.9834,-1.993,-1.9974,-2.0009,-2.0003,-1.9438,0,0,0,0,0,-1.8959,-1.9161,-1.9112,-1.9144,-1.9297,-1.9442,-1.9462,-1.9422,-1.932,-1.9416,-1.9423,-1.9342,-1.9641,-1.953,-1.9565,-1.9704,-2.0003,-2.0024,-2.0045,-2.0225,-2.0271,-2.031,0,0,0,0,0,0,-1.8971,-1.9011,-1.9106,-1.9145,-1.9179,-1.9435,-1.9255,-1.9249,-1.9309,-1.9291,-1.9343,-1.9344,-1.9313,-1.951,-1.9542,-1.9675,-1.9427,-2.0011,-2.003,-2.0046,-2.024,-2.0278,-2.0311,0,0,0,0,0,-1.8981,-1.9013,-1.9268,-1.9142,-1.9172,-1.9167,-1.9247,-1.9241,-1.9287,-1.9297,-1.9295,-1.9251,-1.9318,-1.9342,-1.9529,-1.9662,-1.9405,-1.9417,-2.0023,-2.0038,-2.005,-2.0259,0,0,0,0,0,0,-1.8988,-1.901,-1.9273,-1.9281,-1.9063,-1.9151,-1.9164,-1.9234,-1.9288,-1.9288,-1.9202,-1.9187,-1.9324,-1.9341,-1.936,-1.966,-1.9387,-1.9399,-1.9407,-2.0034,-2.0045,-2.0055,0,0,0,0,0,0,-1.8992,-1.9017,-1.9277,-1.9179,-1.9175,-1.9138,-1.9149,-1.9301,-1.929,-1.9189,-1.9178,-1.9195,-1.9296,-1.9342,-1.9356,-1.9596,-1.9373,-1.9385,-1.9393,-1.9398,-2.0043,-2.0052,0,0,0,0,0,0,-1.9002,-1.9023,-1.9177,-1.9174,-1.917,-1.9251,-1.9272,-1.9431,-1.9204,-1.9188,-1.9183,-1.9173,-1.93,-1.9313,-1.9354,-1.9589,-1.9594,-1.9374,-1.9381,-1.9387,-1.9391,0,0,0,0,0,0,0,-1.901,-1.8876,-1.9228,-1.9169,-1.9165,-1.935,-1.9352,-1.9355,-1.9202,-1.9194,-1.9185,-1.9177,-1.9307,-1.9319,-1.9332,-1.9583,0,0,-1.9372,-1.9378,0,0,0,0,0,0,0,0,-1.8866,-1.8873,-1.9229,-1.923,-1.9232,-1.9351,-1.9352,-1.9354,-1.9201,-1.9194,-1.9187,-1.9181,-1.931,-1.932,-1.9331,0,0,0,0,0,0,0,0,0,0,0,0,0,0,0,-1.9229,-1.923,0,-1.9351,-1.9352,-1.9354,-1.92,-1.9194,-1.9188,-1.9183,-1.9313,-1.9322,-1.933,0,0,0,0,0,0,0,0,0,0,0,0,0,0,0,0,0,0,0,0,0,0,0,0,0,0,0,0,0,0,0,0,0,0,0,0,0,0,0,0,0,0,0,0,0,0,0,0,0,0,0,0,0,0,0,0,0,0,0,0,0,0,0,0,0,0,0,0,0]}],[{"header":{"parameterUnit":"kt","parameterCategory":2,"dx":1,"dy":1,"la1":30.253999710083008,"la2":30.299108505249023,"lo1":-89.0895004272461,"lo2":-89.04439544677734,"nx":28,"ny":28,"refTime":"2022-09-30T21:00:00:Z","depth":0,"parameterNumber":2,"parameterNumberName":"V-component_of_WINDS"},"data":[-8.1322,-8.1492,-8.1521,-8.1726,-8.1786,-8.193,-8.199,-8.207,-8.214,-8.2311,-8.2414,-8.2457,-8.2535,-8.2661,-8.2771,-8.2787,-8.283,-8.2869,-8.288,-8.2684,-8.2658,-8.2634,-8.2596,-8.2879,-8.2879,-8.3078,-8.308,-8.3081,-8.1171,-8.1233,-8.1352,-8.1485,-8.1586,-8.1565,-8.1668,-8.1752,-8.188,-8.1968,-8.2072,-8.2224,-8.2346,-8.2412,-8.2533,-8.2608,-8.2603,-8.2639,-8.2632,-8.2643,-8.2436,-8.2395,-8.264,-8.264,-8.264,-8.264,-8.264,-8.264,-8.0905,-8.1006,-8.1104,-8.1233,-8.1308,-8.1396,-8.1496,-8.1549,-8.1662,-8.1796,-8.1807,-8.1951,-8.2041,-8.2201,-8.226,-8.237,-8.2335,-8.2381,-8.2392,-8.2402,-8.2409,-8.2113,-8.2392,-8.2391,-8.2391,-8.239,-8.239,0,-8.0717,-8.0735,-8.0851,-8.0976,-8.1071,-8.1169,-8.1264,-8.1326,-8.137,-8.1462,-8.1596,-8.1677,-8.1837,-8.1963,-8.2083,-8.2135,-8.2119,-8.2121,-8.2152,-8.2148,-8.2128,-8.2137,-8.1794,-8.2112,-8.211,-8.2108,-8.2107,-8.2106,-8.0447,-8.0564,-8.0681,-8.0758,-8.0818,-8.0942,-8.1021,-8.1052,-8.1134,-8.1252,-8.1338,-8.1468,-8.1572,-8.178,-8.1835,-8.1953,-8.1946,-8.2064,-8.1963,-8.1954,-8.1944,-8.1935,-8.1945,-8.2082,-8.2085,-8.2087,-8.2089,0,-8.0292,-8.034,-8.0529,-8.0633,-8.0663,-8.0782,-8.0869,-8.097,-8.101,-8.1154,-8.1189,-8.125,-8.138,-8.1418,-8.1574,-8.1589,-8.1777,-8.1769,-8.1745,-8.1744,-8.1851,-8.184,-8.22,-8.2247,-8.1957,-8.196,-8.1962,0,-8.0079,-8.023,-8.0292,-8.0399,-8.0567,-8.0595,-8.0759,-8.081,-8.0891,-8.1005,-8.0996,-8.1102,-8.1134,-8.1245,-8.1268,-8.1429,-8.1459,-8.1479,-8.1482,-8.1478,-8.1475,-8.1518,-8.1503,-8.149,-8.1488,-8.1487,-8.1485,0,-7.9828,-8.004,-8.0215,-8.0271,-8.0397,-8.0478,-8.0533,-8.0625,-8.0702,-8.0808,-8.0857,-8.0978,-8.1043,-8.1134,-8.1162,-8.1092,-8.1362,-8.1271,-8.1381,-8.1381,-8.1437,-8.1433,-8.1745,-8.1483,-8.1482,-8.1482,-8.1481,0,-7.9662,-7.9774,-8.0022,-8.0126,-8.018,-8.0295,-8.0417,-8.0525,-8.0622,-8.0645,-8.0728,-8.0725,-8.0873,-8.0779,-8.0981,-8.0881,-8.0944,-8.0978,-8.0986,-8.0999,-8.0893,-8.106,-8.1356,-8.1387,-8.1013,-8.101,-8.1006,0,-7.936,-7.9625,-7.9651,-7.9886,-8.0013,-7.9995,-8.0122,-8.021,-8.0252,-8.0362,-8.0406,-8.0533,-8.0472,-8.0516,-8.0611,-8.066,-8.079,-8.0645,-8.0797,-8.0802,-8.0769,-8.1043,-8.1076,-8.1288,-8.0957,-8.0962,-8.0966,0,-7.9132,-7.9288,-7.9329,-7.9392,-7.9516,-7.9622,-7.977,-7.9903,-7.9975,-8.0075,-8.0197,-8.0376,-8.0336,-8.041,-8.0421,-8.0518,-8.0703,-8.0462,-8.0464,-8.0501,-8.0937,-8.0967,-8.1003,-8.0688,-8.0694,-8.0699,-8.0927,0,-7.8865,-7.9005,-7.9118,-7.9261,-7.935,-7.9501,-7.9546,-7.9632,-7.9634,-7.9675,-7.9856,-7.9938,-8.007,-8.0122,-8.0125,-8.0337,-8.0306,-8.0263,-8.0172,-8.0353,-8.0429,-8.046,-8.0055,-8.0053,-8.0051,-8.0049,0,0,-7.8563,-7.8765,-7.879,-7.8937,-7.9013,-7.8992,-7.9148,-7.922,-7.9365,-7.9416,-7.9367,-7.9632,-7.97,-7.9915,-7.9975,-8.0029,-8.0069,-8.0005,-8.0267,-8.0291,-8.0314,-8.0394,-8.0426,-8.0046,-8.0045,-8.0044,-8.0044,0,-7.8475,-7.8552,-7.8709,-7.8785,-7.8898,-7.8935,-7.8973,-7.9081,-7.9114,-7.9294,-7.9271,-7.9384,-7.9597,-7.9671,-7.9736,-7.9982,-7.9956,-8.0019,-8.0136,-8.0246,-8.0272,-8.0296,-8.0381,-8.0411,-8.0039,-8.0039,-8.0039,0,-7.8256,-7.8338,-7.8419,-7.8596,-7.867,-7.8802,-7.8719,-7.8863,-7.896,-7.8926,-7.9105,-7.9156,-7.9259,-7.9458,-7.9549,-7.9506,-7.985,-7.975,-7.9764,-7.9774,-7.9882,-7.9914,-7.9943,-7.9564,-7.9562,-7.9561,0,0,-7.8173,-7.8304,-7.8401,-7.858,-7.8628,-7.8686,-7.8761,-7.8771,-7.8867,-7.8906,-7.8971,-7.9063,-7.9186,-7.9266,-7.9384,-7.9597,-7.9618,-7.969,-7.9712,-7.9731,-7.975,-7.9863,-7.9895,-7.9554,-7.9554,-7.9553,0,0,-7.8132,-7.8253,-7.8239,-7.8453,-7.8547,-7.8652,-7.8758,-7.8743,-7.8854,-7.8842,-7.8863,-7.8889,-7.9075,-7.9126,-7.9029,-7.9351,-7.9262,-7.9286,-7.9311,-7.934,-7.9362,-7.9345,-7.8954,0,0,0,0,0,-7.8066,-7.8238,-7.8224,-7.8267,-7.849,-7.866,-7.8688,-7.8712,-7.8648,-7.8731,-7.8783,-7.8752,-7.9078,-7.8993,-7.9033,-7.914,-7.9465,-7.9481,-7.9496,-7.9579,-7.9609,-7.9634,0,0,0,0,0,0,-7.8083,-7.8135,-7.822,-7.8332,-7.8382,-7.8654,-7.855,-7.8561,-7.8639,-7.8631,-7.8743,-7.8755,-7.8777,-7.8973,-7.9009,-7.9111,-7.8941,-7.9471,-7.9485,-7.9497,-7.9589,-7.9613,-7.9634,0,0,0,0,0,-7.8096,-7.8139,-7.849,-7.833,-7.8373,-7.8446,-7.8544,-7.8552,-7.8613,-7.8694,-7.8705,-7.8624,-7.8779,-7.8811,-7.8995,-7.9094,-7.8917,-7.893,-7.948,-7.949,-7.95,-7.9601,0,0,0,0,0,0,-7.8107,-7.8146,-7.85,-7.8514,-7.8267,-7.8431,-7.8458,-7.8545,-7.8671,-7.8684,-7.8575,-7.8567,-7.8783,-7.8807,-7.8831,-7.9087,-7.8896,-7.891,-7.8919,-7.9488,-7.9496,-7.9504,0,0,0,0,0,0,-7.8124,-7.8158,-7.8507,-7.8427,-7.8432,-7.8417,-7.8441,-7.8601,-7.8673,-7.8544,-7.8542,-7.857,-7.8744,-7.8805,-7.8824,-7.9072,-7.8881,-7.8894,-7.8903,-7.8909,-7.9495,-7.9501,0,0,0,0,0,0,-7.8139,-7.8169,-7.8423,-7.8427,-7.8431,-7.859,-7.8558,-7.8784,-7.8607,-7.8539,-7.8592,-7.8585,-7.8744,-7.8763,-7.8819,-7.9059,-7.9069,-7.8881,-7.889,-7.8897,-7.8901,0,0,0,0,0,0,0,-7.8151,-7.7947,-7.8417,-7.8427,-7.8431,-7.8643,-7.8647,-7.8651,-7.8606,-7.8599,-7.8593,-7.8588,-7.8807,-7.8821,-7.8835,-7.9049,0,0,-7.888,-7.8886,0,0,0,0,0,0,0,0,-7.7935,-7.7944,-7.8417,-7.842,-7.8423,-7.8644,-7.8647,-7.865,-7.8605,-7.86,-7.8595,-7.859,-7.8811,-7.8822,-7.8834,0,0,0,0,0,0,0,0,0,0,0,0,0,0,0,-7.8418,-7.842,0,-7.8644,-7.8647,-7.8649,-7.8604,-7.86,-7.8596,-7.8592,-7.8814,-7.8823,-7.8833,0,0,0,0,0,0,0,0,0,0,0,0,0,0,0,0,0,0,0,0,0,0,0,0,0,0,0,0,0,0,0,0,0,0,0,0,0,0,0,0,0,0,0,0,0,0,0,0,0,0,0,0,0,0,0,0,0,0,0,0,0,0,0,0,0,0,0,0,0]}]]]